Weather History for Sidney, NE

Change the Weather History Date:

Sunday, September 8, 2013

  Actual Average Record
Temperature  
Mean Temperature 81 °F 67 °F  
Max Temperature 100 °F 83 °F 100 °F (2013)
Min Temperature 61 °F 52 °F 34 °F (1948)
Degree Days  
Heating Degree Days 0 2  
Month to date heating degree days 0 11  
Since 1 July heating degree days 9 22  
Cooling Degree Days 16 4  
Month to date cooling degree days 110 40  
Year to date cooling degree days 873 782  
Growing Degree Days 30 (Base 50)    
Moisture  
Dew Point 43 °F    
Average Humidity 33    
Maximum Humidity 52    
Minimum Humidity 14    
Precipitation  
Precipitation 0.00 in 0.05 in 0.80 in (1973)
Month to date precipitation 0.04 0.45  
Year to date precipitation 8.21 15.61  
Sea Level Pressure  
Sea Level Pressure 29.77 in    
Wind  
Wind Speed 12 mph (SSW)    
Max Wind Speed 25 mph    
Max Gust Speed 35 mph    
Visibility 10 miles    
Events      
T = Trace of Precipitation, MM = Missing Value Source: NWS Daily Summary

Daily Weather History Graph

Daily Weather History Graph

Search for Another Location

Airport:

Trip Planner

Search our weather history database for the weather conditions in past years. The results will help you decide how hot, cold, wet, or windy it might be!

Date:

Astronomy

Sep. 08, 2013 Rise Set
Actual Time 6:25 AM MDT 7:12 PM MDT
Civil Twilight 5:57 AM MDT 7:40 PM MDT
Nautical Twilight 5:24 AM MDT 8:13 PM MDT
Astronomical Twilight 4:50 AM MDT 8:47 PM MDT
Moon 9:47 AM MDT (9/8) 8:46 PM MDT (9/8)
Length of Visible Light 13h 42m
Length of Day
12h 46m
Waxing Crescent, 11% of the Moon is Illuminated
Sep 8
Waxing Crescent
Sep 12
First Quarter
Sep 19
Full
Sep 26
Last Quarter
Oct 4
New

Hourly Weather History & Observations

Time (MDT) Temp. Dew Point Humidity Pressure Visibility Wind Dir Wind Speed Gust Speed Precip Events Conditions
12:53 AM 72.0 °F 44.1 °F 37% 29.85 in 10.0 mi SSW 10.4 mph - N/A   Clear
1:53 AM 66.9 °F 44.1 °F 44% 29.85 in 10.0 mi SW 9.2 mph - N/A   Clear
2:53 AM 64.9 °F 44.1 °F 47% 29.84 in 10.0 mi SW 6.9 mph - N/A   Clear
3:53 AM 62.1 °F 45.0 °F 53% 29.84 in 10.0 mi SSW 5.8 mph - N/A   Clear
4:53 AM 68.0 °F 46.0 °F 45% 29.83 in 10.0 mi SW 10.4 mph - N/A   Clear
5:53 AM 66.9 °F 45.0 °F 45% 29.83 in 10.0 mi SSW 9.2 mph - N/A   Clear
6:53 AM 64.9 °F 45.0 °F 48% 29.86 in 10.0 mi West 6.9 mph - N/A   Clear
7:53 AM 71.1 °F 46.0 °F 41% 29.88 in 10.0 mi West 6.9 mph - N/A   Clear
8:53 AM 82.0 °F 45.0 °F 27% 29.85 in 10.0 mi SW 8.1 mph - N/A   Clear
9:53 AM 90.0 °F 45.0 °F 21% 29.83 in 10.0 mi SW 12.7 mph - N/A   Clear
10:53 AM 93.0 °F 44.1 °F 18% 29.81 in 10.0 mi SSW 17.3 mph 23.0 mph N/A   Clear
11:53 AM 95.0 °F 44.1 °F 17% 29.79 in 10.0 mi South 21.9 mph 27.6 mph N/A   Clear
12:53 PM 97.0 °F 41.0 °F 14% 29.76 in 10.0 mi South 11.5 mph 21.9 mph N/A   Clear
1:53 PM 97.0 °F 39.9 °F 14% 29.74 in 10.0 mi South 13.8 mph 19.6 mph N/A   Clear
2:53 PM 97.0 °F 42.1 °F 15% 29.72 in 10.0 mi Variable 6.9 mph 20.7 mph N/A   Clear
3:53 PM 95.0 °F 39.9 °F 15% 29.70 in 10.0 mi SE 13.8 mph - N/A   Scattered Clouds
4:53 PM 97.0 °F 39.9 °F 14% 29.67 in 10.0 mi SSE 18.4 mph 29.9 mph N/A   Scattered Clouds
5:53 PM 93.9 °F 42.1 °F 17% 29.66 in 10.0 mi South 18.4 mph 29.9 mph N/A   Clear
6:53 PM 88.0 °F 41.0 °F 19% 29.68 in 10.0 mi SSE 15.0 mph - N/A   Clear
7:53 PM 84.0 °F 39.9 °F 21% 29.68 in 10.0 mi SSE 16.1 mph - N/A   Clear
8:53 PM 82.9 °F 41.0 °F 23% 29.66 in 10.0 mi South 17.3 mph - N/A   Clear
9:53 PM 81.0 °F 42.1 °F 25% 29.66 in 10.0 mi South 16.1 mph - N/A   Clear
10:53 PM 75.0 °F 42.1 °F 31% 29.69 in 10.0 mi South 11.5 mph - N/A   Clear
11:53 PM 75.9 °F 42.1 °F 30% 29.69 in 10.0 mi West 12.7 mph - N/A   Clear